SCP
0 0 0 0 1 1 1 1 1 1 1 1 1 1 1 0 0 0 0 1 1 1 1 1 1 0 0 0 0 0 0 0 0 0 0 0 0 0 0 0 0 0 0
0 0 0 0 1 1 1 1 1 1 1 1 1 1 0 0 0 0 0 1 1 1 1 1 1 1 0 0 0 0 0 0 0 0 0 0 0 0 0 1 1 1 0
0 0 0 0 0 1 1 1 1 1 0 0 0 0 0 0 1 1 1 0 1 1 1 1 1 0 0 0 0 0 0 1 0 0 0 0 0 0 0 1 1 0 0
0 0 0 0 0 0 1 1 1 0 0 0 0 0 0 0 1 1 0 0 0 0 1 1 0 0 0 0 0 0 0 1 1 0 0 0 0 0 0 0 0 0 0
0 0 0 0 0 0 0 0 0 0 0 0 0 0 0 0 0 0 0 0 0 0 0 0 0 0 0 0 0 0 1 1 1 0 0 0 0 0 0 0 0 0 0
0 0 0 0 0 0 0 0 0 0 0 0 0 0 0 0 0 0 0 0 0 0 0 0 0 0 0 0 1 1 1 1 0 0 0 0 0 0 0 0 0 0 0
0 0 0 0 0 0 0 0 0 0 0 0 0 0 0 0 0 0 0 0 0 0 0 0 0 0 0 0 1 1 0 0 0 0 0 0 0 0 0 0 0 0 0
0 0 0 0 0 0 0 0 0 0 0 0 0 0 0 0 0 0 0 0 0 0 0 0 0 0 0 0 0 0 0 0 0 0 0 0 0 0 0 0 0 0 0
0 0 0 0 0 0 0 0 0 0 0 0 0 0 0 0 0 0 0 0 0 0 0 0 0 0 0 0 0 0 0 0 0 0 0 1 1 0 0 0 0 0 0
0 0 0 0 0 0 0 0 0 0 0 0 0 0 0 0 0 0 0 0 0 0 0 0 0 0 0 0 0 0 0 0 0 0 0 1 1 1 0 0 0 0 0
0 0 0 0 0 0 0 0 0 0 0 0 0 0 0 0 0 0 0 0 0 0 0 0 0 0 0 0 0 0 0 0 0 0 1 1 1 0 0 0 1 1 0
0 0 0 0 0 0 0 0 0 0 0 0 0 0 0 0 0 0 0 0 0 0 0 0 0 0 0 0 0 0 0 0 0 1 1 1 1 0 0 0 1 0 0
0 0 0 0 0 0 0 0 0 0 0 0 0 0 0 0 0 0 0 0 0 0 0 0 0 0 0 0 0 0 0 0 1 1 1 1 1 0 0 0 0 0 0
0 0 0 0 0 0 0 0 0 0 0 0 0 0 0 0 0 0 0 0 0 0 0 0 0 0 0 0 0 0 0 0 1 1 1 1 1 1 0 0 1 1 1
0 0 0 0 0 0 0 0 0 0 0 0 0 0 0 0 0 0 0 0 0 0 0 0 0 0 0 0 0 0 0 0 1 1 1 1 1 1 1 1 1 1 1
0 0 0 0 0 0 0 0 0 0 0 0 0 0 0 0 0 0 0 0 0 0 0 0 0 0 0 0 0 1 1 1 1 1 1 1 1 1 1 1 1 1 1
0 0 0 0 0 0 0 0 0 0 0 0 0 0 0 0 0 0 0 0 0 0 0 0 0 0 0 0 1 1 1 1 1 1 1 1 1 1 1 1 1 1 1
0 0 0 0 0 0 0 0 0 0 0 0 0 0 0 0 0 0 0 0 0 0 0 0 0 0 0 0 1 1 1 1 1 1 1 1 1 1 1 1 1 1 1
0 0 0 0 0 0 0 0 0 0 0 0 0 0 0 0 0 0 0 0 0 0 0 0 0 0 0 0 1 1 1 1 1 1 1 1 1 1 1 1 1 0 0
0 0 0 0 0 0 0 0 0 0 0 0 0 0 0 0 0 0 0 0 0 0 0 0 0 0 0 1 1 1 1 1 1 1 1 1 1 1 1 0 0 0 0
0 0 0 0 0 0 0 0 0 0 0 0 0 0 0 0 0 0 0 0 0 0 0 0 0 0 1 1 1 0 1 1 1 1 1 1 1 0 0 0 0 0 0
0 0 0 0 0 0 0 0 0 0 0 0 0 0 0 0 0 0 0 0 0 0 0 0 0 0 0 0 0 0 0 1 1 1 1 1 1 1 1 1 0 0 0
0 0 0 0 0 0 0 0 0 0 0 0 0 0 0 0 0 0 0 0 0 0 0 0 1 1 0 0 0 0 0 0 1 1 1 1 1 1 1 1 0 0 0
0 0 0 0 0 0 0 0 0 0 0 0 0 0 0 0 0 0 0 0 0 0 0 0 0 0 0 0 0 0 0 0 0 1 1 1 1 1 1 1 1 0 0
0 0 0 0 0 0 0 0 0 0 0 0 0 0 0 0 0 0 0 0 0 0 0 0 0 0 0 0 0 0 0 0 0 0 0 1 1 1 1 1 1 1 1
0 0 0 0 0 0 0 0 0 0 0 0 0 0 0 0 0 0 0 0 0 0 0 0 0 0 0 0 0 0 0 0 0 0 0 0 1 1 1 1 1 1 1
Wind_Speed
4 5 7 5 7 8 8 8 8 8 9 9 10 10 10 9 9 9 9 9 9 9 9 8 8 8 9 8 8 7 7 7 7 6 6 7 6 6 6 6 3 3 6
5 6 8 6 7 8 9 9 9 8 9 9 10 10 9 9 9 9 9 9 8 8 8 8 7 7 8 7 7 7 7 7 6 5 4 5 6 6 7 6 7 6 6
6 6 8 7 8 9 9 9 9 9 9 10 9 9 9 9 9 8 8 8 8 7 7 7 7 7 7 6 6 6 6 6 5 3 1 2 6 7 6 7 7 7 6
7 6 8 8 9 9 10 10 10 9 9 9 9 9 9 8 8 8 8 8 7 7 7 6 6 6 6 5 5 5 6 6 5 3 0 4 5 9 7 7 7 7 6
7 7 9 8 9 10 10 10 10 9 9 9 9 9 8 8 7 7 7 7 7 6 6 6 5 5 5 5 5 5 5 5 2 2 4 4 5 8 7 7 7 7 7
7 8 10 8 10 10 10 10 10 10 10 9 9 8 8 8 7 7 7 7 6 6 6 5 5 5 5 5 5 5 5 3 3 3 3 3 5 7 7 7 7 7 7
8 9 11 10 10 10 10 10 10 10 10 9 9 9 8 8 8 8 7 6 6 5 5 5 5 5 5 5 5 5 4 2 2 3 2 4 6 7 7 7 7 7 7
8 8 10 11 10 10 9 9 9 9 9 9 8 8 7 7 7 7 6 5 5 5 5 5 5 5 5 4 4 4 3 4 2 3 3 4 7 6 7 7 7 7 7
8 7 7 9 10 10 9 9 9 9 8 8 7 7 6 6 6 5 5 4 4 4 4 5 4 5 4 4 4 4 3 3 1 2 3 5 6 6 7 7 7 7 7
8 7 7 7 7 8 9 10 9 8 7 7 6 6 5 4 4 3 3 5 4 4 4 4 4 5 5 4 4 4 1 4 2 3 3 7 6 6 7 7 7 7 7
7 7 7 7 7 6 7 7 6 6 5 3 5 4 1 2 4 3 8 5 5 4 4 5 5 4 3 5 5 2 3 1 4 3 5 8 6 7 7 7 8 8 8
8 7 6 6 6 6 4 4 3 4 4 3 4 4 3 4 3 3 6 4 4 3 4 5 3 3 4 3 6 4 1 3 3 4 7 7 6 7 7 7 8 8 8
7 6 6 6 5 5 3 3 3 3 3 3 4 4 3 3 2 2 2 4 3 2 3 4 3 2 3 3 2 3 4 3 3 4 8 7 7 7 7 8 8 8 8
6 6 5 5 4 4 4 3 2 2 2 3 3 4 3 3 2 3 2 3 2 2 2 2 2 3 4 5 4 4 5 3 3 4 7 9 8 8 8 8 8 9 8
6 6 5 3 3 4 4 2 2 3 3 4 3 3 4 2 3 2 2 2 2 2 2 2 3 4 4 5 5 5 5 5 5 5 6 10 10 9 9 9 9 9 10
7 6 6 4 4 3 3 3 3 3 3 3 3 4 4 3 3 2 3 3 3 2 3 2 4 4 4 5 6 6 6 6 6 5 5 8 10 11 11 11 11 11 11
7 6 6 4 4 4 4 4 3 3 3 3 3 4 4 4 3 3 3 3 3 3 3 3 5 4 4 5 6 6 6 6 6 6 6 5 6 10 12 12 12 12 12
6 6 6 4 4 5 4 4 3 3 4 3 3 3 4 5 5 4 3 3 3 2 2 3 3 4 4 4 5 5 5 5 6 6 6 6 5 5 10 12 13 13 13
5 6 7 6 5 5 5 4 4 4 4 4 4 4 4 5 5 4 3 3 3 3 3 3 3 3 4 4 5 5 5 5 5 6 7 7 7 5 6 8 10 13 13
5 6 7 7 6 6 5 4 4 4 4 4 4 4 5 4 5 4 3 4 3 3 3 3 4 3 3 3 5 5 5 5 5 5 6 6 6 7 7 7 5 8 12
7 7 6 7 7 6 4 4 3 4 3 4 4 5 4 4 4 4 3 4 3 3 3 4 3 5 4 3 4 5 5 6 6 5 5 5 6 6 7 7 6 5 5
8 8 8 7 7 6 3 3 3 4 3 4 3 4 4 5 5 4 4 4 3 3 3 4 3 2 3 1 1 2 3 4 4 5 4 4 5 5 6 7 7 7 6
9 8 7 7 7 6 6 4 4 4 3 4 4 3 4 5 5 5 5 4 3 3 3 2 2 2 2 2 2 1 0 2 3 4 5 5 5 5 5 6 7 7 7
9 8 8 8 8 7 6 5 5 3 3 4 3 3 4 5 5 5 4 4 4 3 3 3 2 1 1 1 2 2 2 2 1 3 3 5 5 6 6 5 6 7 7
9 8 7 8 7 7 6 5 4 4 3 3 3 4 4 5 5 5 4 4 4 3 4 3 3 2 1 1 1 2 2 1 0 2 3 3 4 5 5 5 5 6 7
9 8 8 8 8 7 6 6 5 5 5 5 4 4 3 3 4 5 4 4 4 3 4 3 3 3 2 2 1 1 1 1 1 2 3 3 3 4 5 5 5 5 5
Wind_Direction
100 94 90 95 100 102 105 108 112 113 111 109 106 103 101 99 97 95 91 88 85 81 79 76 75 74 72 72 71 68 66 65 65 67 69 66 59 54 49 39 12 82 67
100 96 98 97 96 97 101 101 103 103 103 102 100 98 97 96 94 93 89 85 83 79 76 74 73 72 69 65 66 65 61 59 57 61 66 91 71 53 49 42 26 44 54
102 101 108 96 94 93 94 95 96 98 99 99 100 100 98 95 92 89 87 84 81 77 74 71 70 70 67 61 59 62 58 53 52 50 279 88 90 68 53 49 49 50 49
95 95 90 96 95 93 91 91 90 91 94 95 96 96 95 92 90 87 86 83 80 75 73 71 69 66 65 60 56 59 58 54 41 312 261 62 65 71 54 51 51 49 46
94 92 90 91 93 92 91 93 91 89 90 91 93 93 92 90 89 84 82 79 76 71 71 69 67 63 63 62 59 64 62 58 24 302 49 55 59 65 54 52 51 48 43
100 94 91 87 92 93 93 92 90 88 86 87 87 87 86 86 83 78 74 72 71 67 67 67 63 59 60 63 64 66 65 44 264 61 54 58 67 64 53 51 50 46 40
97 94 94 86 89 92 91 90 89 88 87 84 82 81 80 78 77 74 72 72 72 69 65 64 59 58 60 65 67 68 65 352 15 71 71 69 63 55 51 51 50 43 37
97 97 102 95 86 85 87 90 89 86 83 80 80 78 77 74 71 69 66 66 67 65 62 62 58 60 62 65 70 69 54 312 98 79 76 74 63 53 55 50 43 39 35
99 98 99 107 107 99 88 83 82 80 78 75 73 72 72 70 66 63 62 59 61 60 61 60 60 63 65 63 65 68 61 342 347 72 80 71 65 58 55 49 40 37 33
104 100 100 98 98 105 103 84 74 72 69 72 69 64 71 100 102 93 98 67 58 63 66 63 63 68 71 68 60 61 74 247 55 90 74 74 63 58 54 47 42 38 34
115 112 108 105 100 94 88 92 94 94 79 112 113 103 195 108 92 115 62 58 59 64 68 68 71 79 101 110 83 74 238 94 80 62 63 62 61 59 55 48 43 36 31
128 119 114 113 110 99 85 90 81 84 83 63 63 70 66 60 54 49 102 82 78 80 110 90 103 169 224 130 128 200 138 92 90 82 72 53 58 59 53 49 44 37 31
125 124 122 117 111 101 94 71 64 71 83 82 68 76 66 74 93 75 101 133 124 147 119 126 178 109 90 74 74 91 65 63 69 70 71 50 53 56 53 48 43 38 36
138 129 126 124 119 102 88 77 80 83 74 72 68 55 61 63 56 65 63 64 79 82 73 73 74 92 91 98 93 87 90 76 71 71 72 50 49 54 52 48 43 40 42
144 145 133 127 111 105 90 73 86 81 70 83 61 48 53 54 60 67 72 71 64 72 92 79 89 88 84 86 78 73 76 74 73 72 84 64 52 53 52 50 47 45 43
156 149 138 141 126 121 116 102 82 86 95 77 69 52 52 61 60 56 71 67 62 61 65 84 88 92 87 83 81 76 69 73 77 76 79 90 71 55 50 51 49 43 42
147 145 134 135 130 118 97 85 89 89 83 76 66 56 63 55 54 53 56 69 66 80 98 84 93 96 97 97 88 79 71 63 70 72 68 67 84 76 58 49 47 42 42
147 142 135 146 137 114 106 104 98 87 78 73 69 54 56 55 53 56 53 67 67 78 96 98 103 103 95 91 85 78 79 68 64 64 69 69 58 66 75 58 49 44 42
153 151 148 140 134 121 114 108 99 91 78 73 67 56 49 51 52 64 52 57 75 78 82 99 97 99 97 95 92 82 73 67 62 56 65 66 64 57 69 84 69 51 42
157 157 148 137 141 131 128 123 114 97 88 75 68 62 48 45 50 64 75 71 74 85 85 94 100 96 99 106 95 84 73 71 63 56 59 66 58 55 52 55 72 73 54
166 165 157 159 155 151 146 143 128 111 104 88 69 58 55 54 57 65 63 69 63 78 81 100 113 120 115 114 117 106 91 73 66 62 55 58 63 55 54 50 48 47 66
175 177 173 169 166 162 149 131 118 110 99 85 86 76 58 58 56 63 71 81 80 84 89 94 106 114 112 117 148 148 136 109 70 58 62 57 54 58 52 49 52 49 40
181 183 178 172 171 166 155 140 134 126 131 124 105 81 59 58 60 58 62 67 72 81 90 91 109 117 126 110 36 348 77 102 111 75 57 59 51 48 50 45 47 47 47
185 181 183 173 175 166 163 166 155 144 121 101 100 100 92 73 68 60 64 62 71 70 84 91 86 95 112 117 98 32 30 80 141 123 90 69 61 53 47 42 41 44 43
181 179 183 170 170 168 172 161 171 149 126 122 123 113 101 83 70 67 63 67 70 72 71 73 75 55 65 44 69 104 94 100 35 115 112 99 80 60 50 42 43 40 42
178 174 175 171 170 169 175 175 173 152 152 143 136 121 114 103 88 80 71 69 71 71 72 71 74 72 56 57 50 71 92 82 105 95 113 107 88 72 64 51 44 42 41